Time,TemperatureF,DewpointF,PressureIn,WindDirection,WindDirectionDegrees,WindSpeedMPH,WindSpeedGustMPH,Humidity,HourlyPrecipIn,Conditions,Clouds,dailyrainin,SoftwareType,DateUTC
2013-11-03 00:00:00,19.8,17.9,29.57,ENE,58,0.0,0.0,92,0.00,,,0.00,Wunderground v.1.15,2013-11-03 08:00:00,
2013-11-03 00:05:00,20.1,18.1,29.57,NW,325,0.0,0.0,92,0.00,,,0.00,Wunderground v.1.15,2013-11-03 08:05:00,
2013-11-03 00:10:00,20.8,18.8,29.57,NNW,345,1.0,1.0,92,0.00,,,0.00,Wunderground v.1.15,2013-11-03 08:10:00,
2013-11-03 00:15:00,21.3,19.1,29.56,West,275,1.0,1.0,91,0.00,,,0.00,Wunderground v.1.15,2013-11-03 08:15:00,
2013-11-03 00:20:00,23.2,19.6,29.56,North,355,1.0,3.0,86,0.00,,,0.00,Wunderground v.1.15,2013-11-03 08:20:00,
2013-11-03 00:30:00,24.4,20.0,29.56,NNE,29,5.0,5.0,83,0.00,,,0.00,Wunderground v.1.15,2013-11-03 08:30:00,
2013-11-03 00:35:00,24.2,19.8,29.56,North,355,4.0,5.0,83,0.00,,,0.00,Wunderground v.1.15,2013-11-03 08:35:00,
2013-11-03 00:40:00,24.7,20.0,29.56,North,10,4.0,4.0,82,0.00,,,0.00,Wunderground v.1.15,2013-11-03 08:40:00,
2013-11-03 00:45:00,24.8,20.1,29.56,NNE,24,4.0,4.0,82,0.00,,,0.00,Wunderground v.1.15,2013-11-03 08:45:00,
2013-11-03 00:50:00,24.7,19.7,29.56,NE,36,3.0,3.0,81,0.00,,,0.00,Wunderground v.1.15,2013-11-03 08:50:00,
2013-11-03 00:55:00,24.4,19.7,29.56,NW,304,2.0,3.0,82,0.00,,,0.00,Wunderground v.1.15,2013-11-03 08:55:00,
2013-11-03 01:00:00,23.7,19.9,29.56,NNW,340,1.0,1.0,85,0.00,,,0.00,Wunderground v.1.15,2013-11-03 09:00:00,
2013-11-03 01:05:00,23.5,19.7,29.56,NNW,340,0.0,1.0,85,0.00,,,0.00,Wunderground v.1.15,2013-11-03 09:05:00,
2013-11-03 01:10:00,23.1,19.5,29.56,NNW,340,0.0,0.0,86,0.00,,,0.00,Wunderground v.1.15,2013-11-03 09:10:00,
2013-11-03 01:15:00,22.5,18.9,29.56,NNW,340,0.0,0.0,86,0.00,,,0.00,Wunderground v.1.15,2013-11-03 09:15:00,
2013-11-03 01:20:00,22.0,18.5,29.56,NNW,340,0.0,0.0,86,0.00,,,0.00,Wunderground v.1.15,2013-11-03 09:20:00,
2013-11-03 01:25:00,21.6,18.3,29.56,NNW,340,0.0,0.0,87,0.00,,,0.00,Wunderground v.1.15,2013-11-03 09:25:00,
2013-11-03 01:30:00,21.2,18.2,29.56,NNW,340,0.0,0.0,88,0.00,,,0.00,Wunderground v.1.15,2013-11-03 09:30:00,
2013-11-03 01:35:00,21.1,18.1,29.56,NNW,340,0.0,0.0,88,0.00,,,0.00,Wunderground v.1.15,2013-11-03 09:35:00,
2013-11-03 01:40:00,21.3,18.3,29.56,NNW,340,0.0,1.0,88,0.00,,,0.00,Wunderground v.1.15,2013-11-03 09:40:00,
2013-11-03 01:45:00,21.6,18.6,29.55,NNW,340,1.0,1.0,88,0.00,,,0.00,Wunderground v.1.15,2013-11-03 09:45:00,
2013-11-03 01:50:00,22.0,19.0,29.55,NNW,340,1.0,1.0,88,0.00,,,0.00,Wunderground v.1.15,2013-11-03 09:50:00,
2013-11-03 01:55:00,22.3,19.0,29.55,NNW,340,1.0,1.0,87,0.00,,,0.00,Wunderground v.1.15,2013-11-03 09:55:00,
2013-11-03 01:00:00,22.5,19.2,29.55,NNW,340,1.0,1.0,87,0.00,,,0.00,Wunderground v.1.15,2013-11-03 10:00:00,
2013-11-03 01:05:00,22.6,19.0,29.55,NNW,340,0.0,1.0,86,0.00,,,0.00,Wunderground v.1.15,2013-11-03 10:05:00,
2013-11-03 01:10:00,22.5,18.9,29.55,NNW,340,0.0,0.0,86,0.00,,,0.00,Wunderground v.1.15,2013-11-03 10:10:00,
2013-11-03 01:20:00,22.3,18.7,29.54,NNW,340,1.0,1.0,86,0.00,,,0.00,Wunderground v.1.15,2013-11-03 10:20:00,
2013-11-03 01:25:00,22.4,18.8,29.54,NNW,340,1.0,1.0,86,0.00,,,0.00,Wunderground v.1.15,2013-11-03 10:25:00,
2013-11-03 01:30:00,22.6,19.0,29.54,NNW,340,1.0,1.0,86,0.00,,,0.00,Wunderground v.1.15,2013-11-03 10:30:00,
2013-11-03 01:35:00,23.0,19.4,29.54,NNW,340,1.0,3.0,86,0.00,,,0.00,Wunderground v.1.15,2013-11-03 10:35:00,
2013-11-03 01:40:00,23.5,19.7,29.54,NNW,340,1.0,3.0,85,0.00,,,0.00,Wunderground v.1.15,2013-11-03 10:40:00,
2013-11-03 01:45:00,23.9,20.0,29.54,NNW,340,2.0,3.0,85,0.00,,,0.00,Wunderground v.1.15,2013-11-03 10:45:00,
2013-11-03 01:50:00,24.3,19.9,29.54,NNW,340,2.0,2.0,83,0.00,,,0.00,Wunderground v.1.15,2013-11-03 10:50:00,
2013-11-03 01:55:00,24.7,20.3,29.53,West,271,3.0,4.0,83,0.00,,,0.00,Wunderground v.1.15,2013-11-03 10:55:00,
2013-11-03 02:00:00,25.3,20.6,29.53,NW,323,4.0,4.0,82,0.00,,,0.00,Wunderground v.1.15,2013-11-03 11:00:00,
2013-11-03 02:05:00,25.9,20.9,29.53,NW,317,3.0,4.0,81,0.00,,,0.00,Wunderground v.1.15,2013-11-03 11:05:00,
2013-11-03 02:10:00,26.1,21.1,29.53,WNW,300,3.0,3.0,81,0.00,,,0.00,Wunderground v.1.15,2013-11-03 11:10:00,
2013-11-03 02:15:00,26.3,21.0,29.53,WSW,255,3.0,7.0,80,0.00,,,0.00,Wunderground v.1.15,2013-11-03 11:15:00,
2013-11-03 02:20:00,26.5,20.9,29.53,West,265,2.0,2.0,79,0.00,,,0.00,Wunderground v.1.15,2013-11-03 11:20:00,
2013-11-03 02:25:00,26.5,20.9,29.53,West,265,1.0,2.0,79,0.00,,,0.00,Wunderground v.1.15,2013-11-03 11:25:00,
2013-11-03 02:30:00,26.4,21.1,29.52,West,270,1.0,2.0,80,0.00,,,0.00,Wunderground v.1.15,2013-11-03 11:30:00,
2013-11-03 02:35:00,26.4,21.4,29.52,West,272,1.0,2.0,81,0.00,,,0.00,Wunderground v.1.15,2013-11-03 11:35:00,
2013-11-03 02:45:00,26.4,21.9,29.52,West,275,1.0,2.0,83,0.00,,,0.00,Wunderground v.1.15,2013-11-03 11:45:00,
2013-11-03 02:50:00,27.1,22.6,29.52,NW,304,2.0,3.0,83,0.00,,,0.00,Wunderground v.1.15,2013-11-03 11:50:00,
2013-11-03 02:55:00,27.7,22.9,29.51,NW,317,2.0,3.0,82,0.00,,,0.00,Wunderground v.1.15,2013-11-03 11:55:00,
2013-11-03 03:05:00,28.3,22.9,29.51,NW,312,2.0,4.0,80,0.00,,,0.00,Wunderground v.1.15,2013-11-03 12:05:00,
2013-11-03 03:10:00,28.3,23.2,29.51,NW,312,1.0,1.0,81,0.00,,,0.00,Wunderground v.1.15,2013-11-03 12:10:00,
2013-11-03 03:20:00,28.1,22.7,29.50,NW,312,1.0,1.0,80,0.00,,,0.00,Wunderground v.1.15,2013-11-03 12:20:00,
2013-11-03 03:25:00,28.1,22.4,29.50,NW,312,1.0,1.0,79,0.00,,,0.00,Wunderground v.1.15,2013-11-03 12:25:00,
2013-11-03 03:30:00,28.1,22.4,29.50,NW,312,0.0,0.0,79,0.00,,,0.00,Wunderground v.1.15,2013-11-03 12:30:00,
2013-11-03 03:40:00,27.9,22.5,29.49,NW,312,0.0,0.0,80,0.00,,,0.00,Wunderground v.1.15,2013-11-03 12:40:00,
2013-11-03 03:45:00,27.7,22.3,29.49,NW,312,0.0,0.0,80,0.00,,,0.00,Wunderground v.1.15,2013-11-03 12:45:00,
2013-11-03 03:50:00,27.7,22.3,29.49,NW,312,0.0,0.0,80,0.00,,,0.00,Wunderground v.1.15,2013-11-03 12:50:00,
2013-11-03 03:55:00,27.5,22.4,29.49,NW,312,0.0,0.0,81,0.00,,,0.00,Wunderground v.1.15,2013-11-03 12:55:00,
2013-11-03 04:00:00,27.4,22.6,29.49,NW,312,0.0,0.0,82,0.00,,,0.00,Wunderground v.1.15,2013-11-03 13:00:00,
2013-11-03 04:05:00,27.2,22.4,29.48,NW,312,0.0,0.0,82,0.00,,,0.00,Wunderground v.1.15,2013-11-03 13:05:00,
2013-11-03 04:10:00,27.1,22.6,29.48,NW,312,0.0,0.0,83,0.00,,,0.00,Wunderground v.1.15,2013-11-03 13:10:00,
2013-11-03 04:15:00,27.0,22.5,29.48,NW,312,0.0,0.0,83,0.00,,,0.00,Wunderground v.1.15,2013-11-03 13:15:00,
2013-11-03 04:20:00,27.0,22.8,29.48,NW,312,0.0,0.0,84,0.00,,,0.00,Wunderground v.1.15,2013-11-03 13:20:00,
2013-11-03 04:25:00,26.9,22.7,29.48,NW,312,0.0,0.0,84,0.00,,,0.00,Wunderground v.1.15,2013-11-03 13:25:00,
2013-11-03 04:30:00,27.1,22.3,29.47,ENE,73,0.0,2.0,82,0.00,,,0.00,Wunderground v.1.15,2013-11-03 13:30:00,
2013-11-03 04:35:00,27.3,22.5,29.47,North,5,1.0,2.0,82,0.00,,,0.00,Wunderground v.1.15,2013-11-03 13:35:00,
2013-11-03 04:40:00,27.7,23.2,29.47,NNW,345,2.0,3.0,83,0.00,,,0.00,Wunderground v.1.15,2013-11-03 13:40:00,
2013-11-03 04:45:00,28.2,23.4,29.47,NNW,338,2.0,3.0,82,0.00,,,0.00,Wunderground v.1.15,2013-11-03 13:45:00,
2013-11-03 04:50:00,28.4,23.6,29.46,NE,35,2.0,2.0,82,0.00,,,0.00,Wunderground v.1.15,2013-11-03 13:50:00,
2013-11-03 04:55:00,28.7,23.6,29.46,North,355,3.0,5.0,81,0.00,,,0.00,Wunderground v.1.15,2013-11-03 13:55:00,
2013-11-03 05:00:00,29.0,23.6,29.46,NNW,330,3.0,3.0,80,0.00,,,0.00,Wunderground v.1.15,2013-11-03 14:00:00,
2013-11-03 05:05:00,29.0,23.6,29.46,North,5,3.0,3.0,80,0.00,,,0.00,Wunderground v.1.15,2013-11-03 14:05:00,
2013-11-03 05:10:00,29.2,23.5,29.46,NNW,327,3.0,4.0,79,0.00,,,0.00,Wunderground v.1.15,2013-11-03 14:10:00,
2013-11-03 05:15:00,29.5,23.8,29.45,North,5,3.0,4.0,79,0.00,,,0.00,Wunderground v.1.15,2013-11-03 14:15:00,
2013-11-03 05:20:00,28.4,23.9,29.45,NW,312,3.0,3.0,83,0.00,,,0.00,Wunderground v.1.15,2013-11-03 14:20:00,
2013-11-03 05:25:00,28.5,23.7,29.45,NW,312,1.0,3.0,82,0.00,,,0.00,Wunderground v.1.15,2013-11-03 14:25:00,
2013-11-03 05:30:00,28.7,23.9,29.45,WNW,301,2.0,2.0,82,0.00,,,0.00,Wunderground v.1.15,2013-11-03 14:30:00,
2013-11-03 05:40:00,28.9,24.1,29.45,NNW,329,3.0,5.0,82,0.00,,,0.00,Wunderground v.1.15,2013-11-03 14:40:00,
2013-11-03 05:45:00,29.1,24.0,29.44,NNW,328,3.0,5.0,81,0.00,,,0.00,Wunderground v.1.15,2013-11-03 14:45:00,
2013-11-03 05:50:00,29.2,24.1,29.45,NNW,339,3.0,4.0,81,0.00,,,0.00,Wunderground v.1.15,2013-11-03 14:50:00,
2013-11-03 05:55:00,29.6,24.5,29.44,NNW,336,4.0,4.0,81,0.00,,,0.00,Wunderground v.1.15,2013-11-03 14:55:00,
2013-11-03 06:00:00,29.6,24.5,29.44,NNW,336,2.0,2.0,81,0.00,,,0.00,Wunderground v.1.15,2013-11-03 15:00:00,
2013-11-03 06:05:00,29.6,24.5,29.44,NNW,336,0.0,3.0,81,0.00,,,0.00,Wunderground v.1.15,2013-11-03 15:05:00,
2013-11-03 06:10:00,29.6,24.5,29.44,NNW,334,1.0,3.0,81,0.00,,,0.00,Wunderground v.1.15,2013-11-03 15:10:00,
2013-11-03 06:15:00,29.7,24.9,29.44,NNW,334,1.0,3.0,82,0.00,,,0.00,Wunderground v.1.15,2013-11-03 15:15:00,
2013-11-03 06:20:00,29.8,25.0,29.44,West,272,1.0,3.0,82,0.00,,,0.00,Wunderground v.1.15,2013-11-03 15:20:00,
2013-11-03 06:30:00,30.1,25.3,29.44,WSW,253,1.0,1.0,82,0.00,,,0.00,Wunderground v.1.15,2013-11-03 15:30:00,
2013-11-03 06:35:00,30.4,25.6,29.44,West,266,2.0,2.0,82,0.00,,,0.00,Wunderground v.1.15,2013-11-03 15:35:00,
2013-11-03 06:40:00,30.6,25.5,29.44,West,265,2.0,2.0,81,0.00,,,0.00,Wunderground v.1.15,2013-11-03 15:40:00,
2013-11-03 06:45:00,30.8,25.4,29.44,WNW,291,1.0,2.0,80,0.00,,,0.00,Wunderground v.1.15,2013-11-03 15:45:00,
2013-11-03 06:50:00,31.0,25.9,29.44,West,273,2.0,3.0,81,0.00,,,0.00,Wunderground v.1.15,2013-11-03 15:50:00,
2013-11-03 06:55:00,31.1,25.7,29.44,WNW,300,2.0,3.0,80,0.00,,,0.00,Wunderground v.1.15,2013-11-03 15:55:00,
2013-11-03 07:00:00,31.1,25.7,29.43,WNW,292,2.0,2.0,80,0.00,,,0.00,Wunderground v.1.15,2013-11-03 16:00:00,
2013-11-03 07:05:00,31.1,26.0,29.43,NW,319,2.0,2.0,81,0.00,,,0.00,Wunderground v.1.15,2013-11-03 16:05:00,
2013-11-03 07:15:00,30.9,25.8,29.43,NW,317,2.0,4.0,81,0.00,,,0.00,Wunderground v.1.15,2013-11-03 16:15:00,
2013-11-03 07:30:00,31.0,26.4,29.43,NW,316,2.0,4.0,83,0.00,,,0.00,Wunderground v.1.15,2013-11-03 16:30:00,
2013-11-03 07:35:00,31.1,26.5,29.42,NW,316,2.0,4.0,83,0.00,,,0.00,Wunderground v.1.15,2013-11-03 16:35:00,
2013-11-03 07:40:00,31.1,26.8,29.42,NW,316,0.0,2.0,84,0.00,,,0.00,Wunderground v.1.15,2013-11-03 16:40:00,
2013-11-03 07:45:00,31.0,26.7,29.42,NW,316,0.0,2.0,84,0.00,,,0.00,Wunderground v.1.15,2013-11-03 16:45:00,
2013-11-03 07:50:00,30.9,26.6,29.42,NW,316,0.0,0.0,84,0.00,,,0.00,Wunderground v.1.15,2013-11-03 16:50:00,
2013-11-03 08:00:00,30.7,26.7,29.42,NW,316,0.0,0.0,85,0.00,,,0.00,Wunderground v.1.15,2013-11-03 17:00:00,
2013-11-03 08:05:00,30.7,27.0,29.42,NW,316,0.0,2.0,86,0.00,,,0.00,Wunderground v.1.15,2013-11-03 17:05:00,
2013-11-03 08:10:00,30.6,26.9,29.42,NW,315,0.0,0.0,86,0.00,,,0.00,Wunderground v.1.15,2013-11-03 17:10:00,
2013-11-03 08:15:00,30.6,27.2,29.42,NW,315,0.0,0.0,87,0.00,,,0.00,Wunderground v.1.15,2013-11-03 17:15:00,
2013-11-03 08:20:00,30.5,27.1,29.42,NW,315,0.0,0.0,87,0.00,,,0.00,Wunderground v.1.15,2013-11-03 17:20:00,
2013-11-03 08:25:00,30.5,27.4,29.42,NW,315,0.0,0.0,88,0.00,,,0.00,Wunderground v.1.15,2013-11-03 17:25:00,
2013-11-03 08:30:00,30.5,27.4,29.42,NW,315,0.0,0.0,88,0.00,,,0.00,Wunderground v.1.15,2013-11-03 17:30:00,
2013-11-03 08:40:00,30.6,27.5,29.41,NW,315,0.0,0.0,88,0.00,,,0.00,Wunderground v.1.15,2013-11-03 17:40:00,
2013-11-03 08:45:00,30.7,27.8,29.41,NW,315,0.0,0.0,89,0.00,,,0.00,Wunderground v.1.15,2013-11-03 17:45:00,
2013-11-03 08:50:00,30.8,27.9,29.41,NW,315,0.0,0.0,89,0.00,,,0.00,Wunderground v.1.15,2013-11-03 17:50:00,
2013-11-03 08:55:00,31.1,28.5,29.41,NW,315,1.0,1.0,90,0.00,,,0.00,Wunderground v.1.15,2013-11-03 17:55:00,
2013-11-03 09:00:00,31.5,28.9,29.41,NW,315,1.0,1.0,90,0.00,,,0.00,Wunderground v.1.15,2013-11-03 18:00:00,
2013-11-03 09:05:00,31.6,29.0,29.40,NW,315,0.0,1.0,90,0.00,,,0.00,Wunderground v.1.15,2013-11-03 18:05:00,
2013-11-03 09:15:00,31.8,29.2,29.40,NW,315,0.0,0.0,90,0.00,,,0.00,Wunderground v.1.15,2013-11-03 18:15:00,
2013-11-03 09:20:00,31.9,29.0,29.40,NW,319,1.0,1.0,89,0.00,,,0.00,Wunderground v.1.15,2013-11-03 18:20:00,
2013-11-03 09:25:00,32.0,30.7,29.40,NW,319,1.0,1.0,95,0.00,,,0.00,Wunderground v.1.15,2013-11-03 18:25:00,
2013-11-03 09:30:00,31.9,29.0,29.40,NW,319,1.0,1.0,89,0.00,,,0.00,Wunderground v.1.15,2013-11-03 18:30:00,
2013-11-03 09:35:00,31.8,28.7,29.40,NW,319,0.0,1.0,88,0.00,,,0.00,Wunderground v.1.15,2013-11-03 18:35:00,
2013-11-03 09:40:00,31.6,28.5,29.40,NW,319,0.0,0.0,88,0.00,,,0.00,Wunderground v.1.15,2013-11-03 18:40:00,
2013-11-03 09:45:00,31.4,28.3,29.40,NW,319,0.0,0.0,88,0.00,,,0.00,Wunderground v.1.15,2013-11-03 18:45:00,
2013-11-03 09:50:00,31.4,28.5,29.39,NW,319,0.0,0.0,89,0.00,,,0.00,Wunderground v.1.15,2013-11-03 18:50:00,
2013-11-03 09:55:00,31.4,28.5,29.40,NW,319,0.0,0.0,89,0.00,,,0.00,Wunderground v.1.15,2013-11-03 18:55:00,
2013-11-03 10:00:00,31.4,28.5,29.39,NW,319,0.0,0.0,89,0.00,,,0.00,Wunderground v.1.15,2013-11-03 19:00:00,
2013-11-03 10:10:00,31.5,28.6,29.39,NW,321,1.0,1.0,89,0.00,,,0.00,Wunderground v.1.15,2013-11-03 19:10:00,
2013-11-03 10:15:00,31.5,28.6,29.39,NW,321,0.0,1.0,89,0.00,,,0.00,Wunderground v.1.15,2013-11-03 19:15:00,
2013-11-03 10:20:00,31.5,28.6,29.39,NW,321,0.0,0.0,89,0.00,,,0.00,Wunderground v.1.15,2013-11-03 19:20:00,
2013-11-03 10:25:00,31.7,29.1,29.39,NE,43,0.0,4.0,90,0.00,,,0.00,Wunderground v.1.15,2013-11-03 19:25:00,
2013-11-03 10:30:00,31.9,29.3,29.38,North,350,1.0,1.0,90,0.00,,,0.00,Wunderground v.1.15,2013-11-03 19:30:00,
2013-11-03 10:35:00,32.0,29.1,29.38,NW,312,2.0,2.0,89,0.00,,,0.00,Wunderground v.1.15,2013-11-03 19:35:00,
2013-11-03 10:40:00,32.1,29.2,29.38,NE,44,2.0,3.0,89,0.00,,,0.00,Wunderground v.1.15,2013-11-03 19:40:00,
2013-11-03 10:45:00,32.2,29.3,29.38,NE,44,0.0,3.0,89,0.00,,,0.00,Wunderground v.1.15,2013-11-03 19:45:00,
2013-11-03 10:50:00,32.2,29.3,29.39,NE,43,0.0,0.0,89,0.00,,,0.00,Wunderground v.1.15,2013-11-03 19:50:00,
2013-11-03 10:55:00,32.2,29.0,29.39,NE,44,0.0,0.0,88,0.00,,,0.00,Wunderground v.1.15,2013-11-03 19:55:00,
2013-11-03 11:00:00,32.2,29.3,29.39,NE,43,0.0,0.0,89,0.00,,,0.00,Wunderground v.1.15,2013-11-03 20:00:00,
2013-11-03 11:05:00,32.2,29.3,29.38,NE,43,0.0,0.0,89,0.00,,,0.00,Wunderground v.1.15,2013-11-03 20:05:00,
2013-11-03 11:15:00,32.2,29.0,29.38,NE,43,0.0,0.0,88,0.00,,,0.00,Wunderground v.1.15,2013-11-03 20:15:00,
2013-11-03 11:25:00,32.3,29.4,29.38,North,5,1.0,1.0,89,0.00,,,0.00,Wunderground v.1.15,2013-11-03 20:25:00,
2013-11-03 11:30:00,32.4,29.5,29.38,North,5,1.0,1.0,89,0.00,,,0.00,Wunderground v.1.15,2013-11-03 20:30:00,
2013-11-03 11:35:00,32.4,29.5,29.38,North,5,0.0,1.0,89,0.00,,,0.00,Wunderground v.1.15,2013-11-03 20:35:00,
2013-11-03 11:40:00,32.4,29.2,29.38,North,5,0.0,0.0,88,0.00,,,0.00,Wunderground v.1.15,2013-11-03 20:40:00,
2013-11-03 11:45:00,32.4,29.2,29.38,North,5,0.0,0.0,88,0.00,,,0.00,Wunderground v.1.15,2013-11-03 20:45:00,
2013-11-03 11:50:00,32.4,29.2,29.38,North,5,1.0,1.0,88,0.00,,,0.00,Wunderground v.1.15,2013-11-03 20:50:00,
2013-11-03 11:55:00,32.4,29.5,29.38,North,5,1.0,1.0,89,0.00,,,0.00,Wunderground v.1.15,2013-11-03 20:55:00,
2013-11-03 12:00:00,32.4,29.5,29.38,West,277,0.0,0.0,89,0.00,,,0.00,Wunderground v.1.15,2013-11-03 21:00:00,
2013-11-03 12:05:00,32.4,29.5,29.37,West,273,1.0,1.0,89,0.00,,,0.00,Wunderground v.1.15,2013-11-03 21:05:00,
2013-11-03 12:10:00,32.4,29.5,29.37,West,273,0.0,0.0,89,0.00,,,0.00,Wunderground v.1.15,2013-11-03 21:10:00,
2013-11-03 12:15:00,32.4,29.5,29.37,West,273,0.0,0.0,89,0.00,,,0.00,Wunderground v.1.15,2013-11-03 21:15:00,
2013-11-03 12:20:00,32.5,29.9,29.37,West,273,0.0,0.0,90,0.00,,,0.00,Wunderground v.1.15,2013-11-03 21:20:00,
2013-11-03 12:25:00,32.6,30.0,29.37,West,274,1.0,1.0,90,0.00,,,0.00,Wunderground v.1.15,2013-11-03 21:25:00,
2013-11-03 12:30:00,32.7,30.1,29.37,WNW,293,1.0,1.0,90,0.00,,,0.00,Wunderground v.1.15,2013-11-03 21:30:00,
2013-11-03 12:35:00,32.6,30.0,29.37,NW,309,2.0,2.0,90,0.00,,,0.00,Wunderground v.1.15,2013-11-03 21:35:00,
2013-11-03 12:40:00,32.7,30.1,29.36,NW,304,2.0,2.0,90,0.00,,,0.00,Wunderground v.1.15,2013-11-03 21:40:00,
2013-11-03 12:45:00,32.7,30.4,29.36,NW,304,1.0,2.0,91,0.00,,,0.00,Wunderground v.1.15,2013-11-03 21:45:00,
2013-11-03 12:50:00,32.7,30.4,29.36,NW,304,0.0,0.0,91,0.00,,,0.00,Wunderground v.1.15,2013-11-03 21:50:00,
2013-11-03 12:55:00,32.8,30.5,29.36,NW,304,0.0,0.0,91,0.00,,,0.00,Wunderground v.1.15,2013-11-03 21:55:00,
2013-11-03 13:00:00,32.8,30.5,29.36,NW,304,0.0,0.0,91,0.00,,,0.00,Wunderground v.1.15,2013-11-03 22:00:00,
2013-11-03 13:05:00,32.8,30.5,29.35,NW,304,0.0,0.0,91,0.00,,,0.00,Wunderground v.1.15,2013-11-03 22:05:00,
2013-11-03 13:10:00,32.8,30.5,29.35,North,360,0.0,2.0,91,0.00,,,0.00,Wunderground v.1.15,2013-11-03 22:10:00,
2013-11-03 13:15:00,32.9,30.3,29.35,NNE,13,1.0,2.0,90,0.00,,,0.00,Wunderground v.1.15,2013-11-03 22:15:00,
2013-11-03 13:20:00,32.9,30.3,29.35,NNW,341,2.0,3.0,90,0.00,,,0.00,Wunderground v.1.15,2013-11-03 22:20:00,
2013-11-03 13:25:00,32.9,30.0,29.35,North,349,2.0,3.0,89,0.00,,,0.00,Wunderground v.1.15,2013-11-03 22:25:00,
2013-11-03 13:35:00,33.0,30.7,29.34,NW,304,2.0,3.0,91,0.00,,,0.00,Wunderground v.1.15,2013-11-03 22:35:00,
2013-11-03 13:40:00,33.0,30.7,29.34,NW,304,1.0,3.0,91,0.00,,,0.00,Wunderground v.1.15,2013-11-03 22:40:00,
2013-11-03 13:45:00,33.0,30.7,29.34,NW,304,0.0,3.0,91,0.00,,,0.00,Wunderground v.1.15,2013-11-03 22:45:00,
2013-11-03 13:50:00,33.0,30.4,29.34,NW,304,0.0,0.0,90,0.00,,,0.00,Wunderground v.1.15,2013-11-03 22:50:00,
2013-11-03 13:55:00,32.9,30.3,29.34,NW,304,0.0,0.0,90,0.00,,,0.00,Wunderground v.1.15,2013-11-03 22:55:00,
2013-11-03 14:00:00,32.9,30.3,29.34,NW,304,0.0,0.0,90,0.00,,,0.00,Wunderground v.1.15,2013-11-03 23:00:00,
2013-11-03 14:05:00,32.9,30.3,29.33,NW,304,0.0,0.0,90,0.00,,,0.00,Wunderground v.1.15,2013-11-03 23:05:00,
2013-11-03 14:10:00,32.9,30.6,29.33,NW,309,0.0,2.0,91,0.00,,,0.00,Wunderground v.1.15,2013-11-03 23:10:00,
2013-11-03 14:15:00,32.8,30.5,29.33,NW,309,1.0,2.0,91,0.00,,,0.00,Wunderground v.1.15,2013-11-03 23:15:00,
2013-11-03 14:25:00,32.9,30.6,29.33,NW,309,1.0,2.0,91,0.00,,,0.00,Wunderground v.1.15,2013-11-03 23:25:00,
2013-11-03 14:30:00,33.0,30.7,29.33,NW,309,1.0,2.0,91,0.00,,,0.00,Wunderground v.1.15,2013-11-03 23:30:00,
2013-11-03 14:35:00,33.0,30.7,29.33,NW,309,1.0,2.0,91,0.00,,,0.00,Wunderground v.1.15,2013-11-03 23:35:00,
2013-11-03 14:40:00,33.1,30.8,29.33,NW,309,1.0,1.0,91,0.00,,,0.00,Wunderground v.1.15,2013-11-03 23:40:00,
2013-11-03 14:45:00,33.1,30.8,29.33,NW,309,1.0,1.0,91,0.00,,,0.00,Wunderground v.1.15,2013-11-03 23:45:00,
2013-11-03 14:50:00,33.1,30.8,29.33,NW,310,1.0,1.0,91,0.00,,,0.00,Wunderground v.1.15,2013-11-03 23:50:00,
2013-11-03 14:55:00,33.2,30.9,29.33,NW,310,1.0,1.0,91,0.00,,,0.00,Wunderground v.1.15,2013-11-03 23:55:00,
2013-11-03 15:05:00,33.2,30.9,29.33,NW,310,1.0,2.0,91,0.00,,,0.00,Wunderground v.1.15,2013-11-04 00:05:00,
2013-11-03 15:10:00,33.2,31.1,29.33,NW,310,1.0,1.0,92,0.00,,,0.00,Wunderground v.1.15,2013-11-04 00:10:00,
2013-11-03 15:20:00,33.0,30.9,29.32,NW,310,0.0,0.0,92,0.00,,,0.00,Wunderground v.1.15,2013-11-04 00:20:00,
2013-11-03 15:25:00,33.0,30.9,29.32,NW,310,1.0,1.0,92,0.00,,,0.00,Wunderground v.1.15,2013-11-04 00:25:00,
2013-11-03 15:30:00,33.0,31.2,29.32,NW,310,1.0,1.0,93,0.00,,,0.00,Wunderground v.1.15,2013-11-04 00:30:00,
2013-11-03 15:35:00,32.9,31.1,29.32,NW,310,1.0,1.0,93,0.00,,,0.00,Wunderground v.1.15,2013-11-04 00:35:00,
2013-11-03 15:40:00,32.9,31.1,29.32,NW,310,1.0,1.0,93,0.00,,,0.00,Wunderground v.1.15,2013-11-04 00:40:00,
2013-11-03 15:45:00,32.9,31.1,29.31,NW,310,1.0,1.0,93,0.00,,,0.00,Wunderground v.1.15,2013-11-04 00:45:00,
2013-11-03 15:50:00,32.9,31.1,29.31,NW,310,1.0,1.0,93,0.00,,,0.00,Wunderground v.1.15,2013-11-04 00:50:00,
2013-11-03 15:55:00,32.9,31.1,29.31,NW,310,1.0,1.0,93,0.00,,,0.00,Wunderground v.1.15,2013-11-04 00:55:00,
2013-11-03 16:00:00,32.9,31.1,29.31,NW,310,1.0,1.0,93,0.00,,,0.00,Wunderground v.1.15,2013-11-04 01:00:00,
2013-11-03 16:05:00,32.9,31.1,29.31,NW,310,1.0,3.0,93,0.00,,,0.00,Wunderground v.1.15,2013-11-04 01:05:00,
2013-11-03 16:10:00,32.9,31.4,29.31,NW,310,1.0,1.0,94,0.00,,,0.00,Wunderground v.1.15,2013-11-04 01:10:00,
2013-11-03 16:15:00,32.9,31.4,29.31,NW,310,1.0,2.0,94,0.00,,,0.00,Wunderground v.1.15,2013-11-04 01:15:00,
2013-11-03 16:20:00,32.8,31.3,29.30,NW,310,1.0,1.0,94,0.00,,,0.00,Wunderground v.1.15,2013-11-04 01:20:00,
2013-11-03 16:25:00,32.8,31.3,29.30,NW,310,1.0,3.0,94,0.00,,,0.00,Wunderground v.1.15,2013-11-04 01:25:00,
2013-11-03 16:30:00,32.7,31.2,29.31,NW,310,1.0,1.0,94,0.00,,,0.00,Wunderground v.1.15,2013-11-04 01:30:00,
2013-11-03 16:35:00,32.6,31.1,29.30,NW,310,0.0,1.0,94,0.00,,,0.00,Wunderground v.1.15,2013-11-04 01:35:00,
2013-11-03 16:40:00,32.6,31.1,29.30,NW,310,0.0,0.0,94,0.00,,,0.00,Wunderground v.1.15,2013-11-04 01:40:00,
2013-11-03 16:45:00,32.6,31.1,29.30,NW,310,0.0,0.0,94,0.00,,,0.00,Wunderground v.1.15,2013-11-04 01:45:00,
2013-11-03 16:50:00,32.6,31.1,29.30,NW,310,0.0,0.0,94,0.00,,,0.00,Wunderground v.1.15,2013-11-04 01:50:00,
2013-11-03 16:55:00,32.6,31.1,29.30,NW,310,0.0,0.0,94,0.00,,,0.00,Wunderground v.1.15,2013-11-04 01:55:00,
2013-11-03 17:00:00,32.6,31.1,29.30,NW,310,0.0,0.0,94,0.00,,,0.00,Wunderground v.1.15,2013-11-04 02:00:00,
2013-11-03 17:05:00,32.6,31.1,29.30,NW,310,0.0,1.0,94,0.00,,,0.00,Wunderground v.1.15,2013-11-04 02:05:00,
2013-11-03 17:10:00,32.5,31.0,29.30,NW,310,1.0,2.0,94,0.00,,,0.00,Wunderground v.1.15,2013-11-04 02:10:00,
2013-11-03 17:15:00,32.5,31.0,29.30,NW,310,1.0,2.0,94,0.00,,,0.00,Wunderground v.1.15,2013-11-04 02:15:00,
2013-11-03 17:20:00,32.4,30.9,29.29,NW,310,1.0,1.0,94,0.00,,,0.00,Wunderground v.1.15,2013-11-04 02:20:00,
2013-11-03 17:25:00,32.4,30.9,29.29,NW,310,1.0,1.0,94,0.00,,,0.00,Wunderground v.1.15,2013-11-04 02:25:00,
2013-11-03 17:30:00,32.4,30.6,29.29,NW,310,1.0,1.0,93,0.00,,,0.00,Wunderground v.1.15,2013-11-04 02:30:00,
2013-11-03 17:35:00,32.4,30.6,29.29,NW,310,1.0,1.0,93,0.00,,,0.00,Wunderground v.1.15,2013-11-04 02:35:00,
2013-11-03 17:45:00,32.4,30.6,29.29,NW,310,0.0,1.0,93,0.00,,,0.00,Wunderground v.1.15,2013-11-04 02:45:00,
2013-11-03 17:50:00,32.4,30.6,29.29,NW,310,0.0,0.0,93,0.00,,,0.00,Wunderground v.1.15,2013-11-04 02:50:00,
2013-11-03 17:55:00,32.5,30.4,29.29,NW,310,0.0,0.0,92,0.00,,,0.00,Wunderground v.1.15,2013-11-04 02:55:00,
2013-11-03 18:00:00,32.5,30.4,29.29,NW,310,0.0,0.0,92,0.00,,,0.00,Wunderground v.1.15,2013-11-04 03:00:00,
2013-11-03 18:05:00,32.5,30.4,29.29,NW,310,0.0,0.0,92,0.00,,,0.00,Wunderground v.1.15,2013-11-04 03:05:00,
2013-11-03 18:15:00,32.5,30.4,29.29,NW,310,0.0,0.0,92,0.00,,,0.00,Wunderground v.1.15,2013-11-04 03:15:00,
2013-11-03 18:20:00,32.4,30.3,29.29,NW,310,0.0,0.0,92,0.00,,,0.00,Wunderground v.1.15,2013-11-04 03:20:00,
2013-11-03 18:25:00,32.4,30.3,29.29,NW,310,0.0,0.0,92,0.00,,,0.00,Wunderground v.1.15,2013-11-04 03:25:00,
2013-11-03 18:30:00,32.3,30.2,29.29,NW,310,0.0,0.0,92,0.00,,,0.00,Wunderground v.1.15,2013-11-04 03:30:00,
2013-11-03 18:35:00,32.3,30.2,29.29,NW,310,0.0,0.0,92,0.00,,,0.00,Wunderground v.1.15,2013-11-04 03:35:00,
2013-11-03 18:40:00,32.3,30.2,29.29,NW,310,0.0,0.0,92,0.00,,,0.00,Wunderground v.1.15,2013-11-04 03:40:00,
2013-11-03 18:45:00,32.4,30.3,29.29,NW,310,0.0,0.0,92,0.00,,,0.00,Wunderground v.1.15,2013-11-04 03:45:00,
2013-11-03 18:50:00,32.4,30.3,29.29,NW,310,0.0,0.0,92,0.00,,,0.00,Wunderground v.1.15,2013-11-04 03:50:00,
2013-11-03 18:55:00,32.3,30.2,29.28,NW,310,0.0,1.0,92,0.00,,,0.00,Wunderground v.1.15,2013-11-04 03:55:00,
2013-11-03 19:05:00,32.3,30.2,29.29,NW,309,1.0,1.0,92,0.00,,,0.00,Wunderground v.1.15,2013-11-04 04:05:00,
2013-11-03 19:10:00,32.3,30.2,29.29,NW,307,1.0,1.0,92,0.00,,,0.00,Wunderground v.1.15,2013-11-04 04:10:00,
2013-11-03 19:15:00,32.3,30.2,29.29,NW,307,1.0,1.0,92,0.00,,,0.00,Wunderground v.1.15,2013-11-04 04:15:00,
2013-11-03 19:20:00,32.2,30.4,29.29,NW,307,1.0,1.0,93,0.00,,,0.00,Wunderground v.1.15,2013-11-04 04:20:00,
2013-11-03 19:25:00,32.2,30.4,29.29,NW,306,1.0,2.0,93,0.00,,,0.00,Wunderground v.1.15,2013-11-04 04:25:00,
2013-11-03 19:30:00,32.2,30.4,29.29,NW,306,1.0,1.0,93,0.00,,,0.00,Wunderground v.1.15,2013-11-04 04:30:00,
2013-11-03 19:35:00,32.2,30.4,29.29,NW,306,1.0,1.0,93,0.00,,,0.00,Wunderground v.1.15,2013-11-04 04:35:00,
2013-11-03 19:40:00,32.1,30.3,29.29,NW,306,1.0,1.0,93,0.00,,,0.00,Wunderground v.1.15,2013-11-04 04:40:00,
2013-11-03 19:45:00,32.1,30.6,29.28,NW,306,1.0,1.0,94,0.00,,,0.00,Wunderground v.1.15,2013-11-04 04:45:00,
2013-11-03 19:50:00,32.1,30.6,29.28,NW,306,1.0,1.0,94,0.00,,,0.00,Wunderground v.1.15,2013-11-04 04:50:00,
2013-11-03 19:55:00,32.0,30.5,29.29,NW,306,1.0,1.0,94,0.00,,,0.00,Wunderground v.1.15,2013-11-04 04:55:00,
2013-11-03 20:00:00,32.0,30.5,29.28,NW,306,0.0,0.0,94,0.00,,,0.00,Wunderground v.1.15,2013-11-04 05:00:00,
2013-11-03 20:05:00,32.0,30.5,29.28,NW,306,0.0,1.0,94,0.00,,,0.00,Wunderground v.1.15,2013-11-04 05:05:00,
2013-11-03 20:10:00,31.9,30.6,29.28,NW,306,0.0,0.0,95,0.00,,,0.00,Wunderground v.1.15,2013-11-04 05:10:00,
2013-11-03 20:15:00,31.9,30.6,29.28,NW,306,0.0,2.0,95,0.00,,,0.00,Wunderground v.1.15,2013-11-04 05:15:00,
2013-11-03 20:20:00,31.9,30.6,29.28,NW,306,0.0,0.0,95,0.00,,,0.00,Wunderground v.1.15,2013-11-04 05:20:00,
2013-11-03 20:25:00,31.9,30.6,29.28,NW,306,0.0,0.0,95,0.00,,,0.00,Wunderground v.1.15,2013-11-04 05:25:00,
2013-11-03 20:30:00,31.9,30.6,29.28,NW,306,0.0,0.0,95,0.00,,,0.00,Wunderground v.1.15,2013-11-04 05:30:00,
2013-11-03 20:35:00,31.9,30.6,29.28,NW,306,0.0,0.0,95,0.00,,,0.00,Wunderground v.1.15,2013-11-04 05:35:00,
2013-11-03 20:40:00,31.9,30.6,29.28,NW,306,0.0,1.0,95,0.00,,,0.00,Wunderground v.1.15,2013-11-04 05:40:00,
2013-11-03 20:45:00,31.9,30.6,29.28,NW,306,0.0,1.0,95,0.00,,,0.00,Wunderground v.1.15,2013-11-04 05:45:00,
2013-11-03 20:50:00,31.9,30.6,29.28,NW,306,1.0,1.0,95,0.00,,,0.00,Wunderground v.1.15,2013-11-04 05:50:00,
2013-11-03 21:00:00,31.8,30.5,29.28,NW,306,0.0,2.0,95,0.00,,,0.00,Wunderground v.1.15,2013-11-04 06:00:00,
2013-11-03 21:05:00,31.8,30.5,29.28,NW,306,1.0,2.0,95,0.00,,,0.00,Wunderground v.1.15,2013-11-04 06:05:00,
2013-11-03 21:10:00,31.8,30.8,29.28,NW,306,0.0,0.0,96,0.00,,,0.00,Wunderground v.1.15,2013-11-04 06:10:00,
2013-11-03 21:15:00,31.8,30.8,29.28,NW,306,0.0,2.0,96,0.00,,,0.00,Wunderground v.1.15,2013-11-04 06:15:00,
2013-11-03 21:20:00,31.8,30.8,29.28,NW,306,0.0,0.0,96,0.00,,,0.00,Wunderground v.1.15,2013-11-04 06:20:00,
2013-11-03 21:25:00,31.7,30.4,29.28,NW,306,0.0,2.0,95,0.00,,,0.00,Wunderground v.1.15,2013-11-04 06:25:00,
2013-11-03 21:30:00,31.7,30.4,29.28,NW,306,1.0,1.0,95,0.00,,,0.00,Wunderground v.1.15,2013-11-04 06:30:00,
2013-11-03 21:35:00,31.7,30.7,29.29,NW,306,1.0,1.0,96,0.00,,,0.00,Wunderground v.1.15,2013-11-04 06:35:00,
2013-11-03 21:40:00,31.7,30.7,29.28,NW,306,1.0,1.0,96,0.00,,,0.00,Wunderground v.1.15,2013-11-04 06:40:00,
2013-11-03 21:45:00,31.6,30.6,29.29,NW,306,0.0,1.0,96,0.00,,,0.00,Wunderground v.1.15,2013-11-04 06:45:00,
2013-11-03 21:50:00,31.6,30.6,29.29,NW,306,0.0,0.0,96,0.00,,,0.00,Wunderground v.1.15,2013-11-04 06:50:00,
2013-11-03 21:55:00,31.6,30.6,29.29,NW,306,1.0,1.0,96,0.00,,,0.00,Wunderground v.1.15,2013-11-04 06:55:00,
2013-11-03 22:00:00,31.6,30.6,29.29,NW,306,1.0,1.0,96,0.00,,,0.00,Wunderground v.1.15,2013-11-04 07:00:00,
2013-11-03 22:05:00,31.6,30.6,29.29,NW,306,1.0,1.0,96,0.00,,,0.00,Wunderground v.1.15,2013-11-04 07:05:00,
2013-11-03 22:10:00,31.5,30.5,29.29,NW,306,1.0,1.0,96,0.00,,,0.00,Wunderground v.1.15,2013-11-04 07:10:00,
2013-11-03 22:15:00,31.4,30.4,29.29,NW,306,2.0,3.0,96,0.00,,,0.00,Wunderground v.1.15,2013-11-04 07:15:00,
2013-11-03 22:20:00,31.3,30.3,29.29,NNW,327,2.0,4.0,96,0.00,,,0.00,Wunderground v.1.15,2013-11-04 07:20:00,
2013-11-03 22:25:00,31.3,30.3,29.29,NNW,327,2.0,4.0,96,0.00,,,0.00,Wunderground v.1.15,2013-11-04 07:25:00,
2013-11-03 22:30:00,31.3,30.3,29.29,NNW,327,2.0,2.0,96,0.00,,,0.00,Wunderground v.1.15,2013-11-04 07:30:00,
2013-11-03 22:35:00,31.3,30.3,29.28,NNW,327,1.0,2.0,96,0.00,,,0.00,Wunderground v.1.15,2013-11-04 07:35:00,
2013-11-03 22:40:00,31.3,30.3,29.29,NNW,327,1.0,1.0,96,0.00,,,0.00,Wunderground v.1.15,2013-11-04 07:40:00,
2013-11-03 22:45:00,31.3,30.3,29.29,NNW,327,0.0,1.0,96,0.00,,,0.00,Wunderground v.1.15,2013-11-04 07:45:00,
2013-11-03 22:50:00,31.4,30.6,29.29,NNW,327,0.0,3.0,97,0.00,,,0.00,Wunderground v.1.15,2013-11-04 07:50:00,
2013-11-03 22:55:00,31.4,30.6,29.29,NNW,327,1.0,3.0,97,0.00,,,0.00,Wunderground v.1.15,2013-11-04 07:55:00,
2013-11-03 23:00:00,31.4,30.6,29.29,NNW,327,1.0,1.0,97,0.00,,,0.00,Wunderground v.1.15,2013-11-04 08:00:00,
2013-11-03 23:05:00,31.3,30.5,29.29,NNW,327,0.0,1.0,97,0.00,,,0.00,Wunderground v.1.15,2013-11-04 08:05:00,
2013-11-03 23:10:00,31.3,30.5,29.29,NNW,327,1.0,1.0,97,0.00,,,0.00,Wunderground v.1.15,2013-11-04 08:10:00,
2013-11-03 23:15:00,31.3,30.5,29.29,NNW,327,1.0,1.0,97,0.00,,,0.00,Wunderground v.1.15,2013-11-04 08:15:00,
2013-11-03 23:20:00,31.4,30.6,29.29,NNW,327,1.0,1.0,97,0.00,,,0.00,Wunderground v.1.15,2013-11-04 08:20:00,
2013-11-03 23:25:00,31.4,30.6,29.29,NNW,327,1.0,1.0,97,0.00,,,0.00,Wunderground v.1.15,2013-11-04 08:25:00,
2013-11-03 23:30:00,31.4,30.6,29.29,NNW,327,1.0,1.0,97,0.00,,,0.00,Wunderground v.1.15,2013-11-04 08:30:00,
2013-11-03 23:35:00,31.4,30.6,29.29,NNW,327,1.0,1.0,97,0.00,,,0.00,Wunderground v.1.15,2013-11-04 08:35:00,
2013-11-03 23:40:00,31.4,30.6,29.29,NNW,327,1.0,1.0,97,0.00,,,0.00,Wunderground v.1.15,2013-11-04 08:40:00,
2013-11-03 23:45:00,31.3,30.5,29.29,NNW,327,1.0,1.0,97,0.00,,,0.00,Wunderground v.1.15,2013-11-04 08:45:00,
2013-11-03 23:50:00,31.3,30.5,29.29,NNW,327,1.0,1.0,97,0.00,,,0.00,Wunderground v.1.15,2013-11-04 08:50:00,
2013-11-03 23:55:00,31.2,30.4,29.29,NNW,327,0.0,1.0,97,0.00,,,0.00,Wunderground v.1.15,2013-11-04 08:55:00,